Location: Unspecified
(0.0000°N, 0.0000°E)
Time: 18:09:11
(UTC+02:00)

IUS-9 SRM-1 - Visible Passes

Search period start: 01 September 2015 00:00
Search period end: 11 September 2015 00:00
Orbit: 256 x 20312 km, 26.4° (Epoch: 31 August)

Date Brightness Start Highest point End Pass type
(mag) Time Alt. Az. Time Alt. Az. Time Alt. Az.
01 Sep 6.8 07:33:44 10° SW 07:56:06 43° SSE 12:11:07 10° ENE visible
02 Sep 6.8 07:20:01 10° SW 07:40:22 41° SSE 11:53:43 10° ENE visible
03 Sep 6.7 07:06:16 10° SW 07:24:50 39° SSE 11:35:37 10° ENE visible
04 Sep 6.6 06:52:30 10° SW 07:09:26 38° SSE 11:16:38 10° ENE visible
05 Sep 6.6 06:38:47 10° SW 06:54:10 36° SSE 10:56:30 10° ENE visible
06 Sep 6.5 06:25:32 12° SW 06:39:01 34° SSE 10:34:45 10° ENE visible
07 Sep 6.5 06:12:15 15° SSW 06:23:56 32° SSE 10:10:36 10° ENE visible
08 Sep 6.4 05:58:54 16° SSW 06:08:56 31° SSE 09:42:24 10° E visible
09 Sep 6.4 05:45:30 18° SSW 05:53:59 29° SSE 09:05:23 10° E visible
10 Sep 6.4 05:32:04 19° SSW 05:39:06 27° SSE 07:47:15 10° E visible
10 Sep 6.0 22:56:33 10° NW 22:57:33 12° NW 22:57:33 12° NW visible
